• In Hungary
  • List of Countries
  • For 7 days
  • Water Temperature
  • Satellite Maps
  • Weather Map
  • News
  • Weather Widgets
  • user-avatar
    Login

    Hourly Weather Jonkoping

    Today, 23 May, Wednesday

    Time Temperature Precipitation Wind Pressure Humidity
    00:00 +13°C° 0 mm 1 mps 755 mmHg 65%
    01:00 +13°C° 0 mm 1 mps 755 mmHg 67%
    02:00 +12°C° 0 mm 1 mps 756 mmHg 68%
    03:00 +12°C° 0 mm 1 mps 756 mmHg 69%
    04:00 +12°C° 0 mm 1 mps 756 mmHg 69%
    05:00 +14°C° 0 mm 1 mps 756 mmHg 62%
    06:00 +18°C° 0 mm 1 mps 757 mmHg 54%
    07:00 +20°C° 0 mm 1 mps 757 mmHg 46%
    08:00 +22°C° 0 mm 1 mps 758 mmHg 40%
    09:00 +24°C° 0 mm 1 mps 758 mmHg 35%
    10:00 +25°C° 0 mm 2 mps 758 mmHg 30%
    11:00 +26°C° 0 mm 2 mps 759 mmHg 28%
    12:00 +26°C° 0 mm 2 mps 759 mmHg 27%
    13:00 +27°C° 0 mm 2 mps 759 mmHg 26%
    14:00 +27°C° 0 mm 2 mps 759 mmHg 27%
    15:00 +27°C° 0 mm 2 mps 759 mmHg 28%
    16:00 +26°C° 0 mm 2 mps 759 mmHg 29%
    17:00 +25°C° 0 mm 2 mps 759 mmHg 34%
    18:00 +24°C° 0 mm 2 mps 760 mmHg 39%
    19:00 +23°C° 0 mm 1 mps 760 mmHg 45%
    20:00 +20°C° 0 mm 2 mps 760 mmHg 49%
    21:00 +18°C° 0 mm 2 mps 761 mmHg 54%
    22:00 +16°C° 0 mm 2 mps 761 mmHg 58%
    23:00 +15°C° 0 mm 2 mps 762 mmHg 61%

    Tomorrow, 24 May, Thursday

    Time Temperature Precipitation Wind Pressure Humidity
    00:00 +14°C° 0 mm 2 mps 762 mmHg 64%
    01:00 +13°C° 0 mm 2 mps 763 mmHg 67%
    02:00 +13°C° 0 mm 2 mps 763 mmHg 69%
    03:00 +12°C° 0 mm 2 mps 763 mmHg 71%
    04:00 +12°C° 0 mm 2 mps 763 mmHg 73%
    05:00 +14°C° 0 mm 2 mps 763 mmHg 66%
    06:00 +16°C° 0 mm 2 mps 763 mmHg 59%
    07:00 +18°C° 0 mm 2 mps 764 mmHg 52%
    08:00 +20°C° 0 mm 2 mps 764 mmHg 45%
    09:00 +23°C° 0 mm 2 mps 764 mmHg 39%
    10:00 +25°C° 0 mm 2 mps 764 mmHg 33%
    11:00 +26°C° 0 mm 2 mps 764 mmHg 31%
    12:00 +27°C° 0 mm 2 mps 763 mmHg 29%
    13:00 +28°C° 0 mm 2 mps 763 mmHg 27%
    14:00 +27°C° 0 mm 2 mps 763 mmHg 28%
    15:00 +27°C° 0 mm 2 mps 763 mmHg 29%
    16:00 +27°C° 0 mm 2 mps 762 mmHg 29%
    17:00 +26°C° 0 mm 2 mps 762 mmHg 33%
    18:00 +24°C° 0 mm 2 mps 762 mmHg 38%
    19:00 +23°C° 0 mm 2 mps 762 mmHg 42%
    20:00 +20°C° 0 mm 2 mps 762 mmHg 44%
    21:00 +18°C° 0 mm 2 mps 763 mmHg 46%
    22:00 +15°C° 0 mm 2 mps 763 mmHg 49%
    23:00 +15°C° 0 mm 2 mps 763 mmHg 48%

    Day after tomorrow, 25 May, Friday

    Time Temperature Precipitation Wind Pressure Humidity
    00:00 +14°C° 0 mm 1 mps 763 mmHg 48%
    01:00 +13°C° 0 mm 1 mps 763 mmHg 48%
    02:00 +13°C° 0 mm 1 mps 763 mmHg 48%
    03:00 +12°C° 0 mm 1 mps 763 mmHg 49%
    04:00 +12°C° 0 mm 1 mps 763 mmHg 49%
    05:00 +14°C° 0 mm 1 mps 763 mmHg 45%
    06:00 +16°C° 0 mm 1 mps 763 mmHg 40%
    07:00 +20°C° 0 mm 1 mps 763 mmHg 36%
    08:00 +20°C° 0 mm 2 mps 763 mmHg 33%
    09:00 +23°C° 0 mm 2 mps 763 mmHg 29%
    10:00 +24°C° 0 mm 3 mps 763 mmHg 26%
    11:00 +25°C° 0 mm 3 mps 762 mmHg 25%
    12:00 +26°C° 0 mm 3 mps 762 mmHg 24%
    13:00 +26°C° 0 mm 3 mps 762 mmHg 23%
    14:00 +26°C° 0 mm 3 mps 762 mmHg 25%
    15:00 +26°C° 0 mm 2 mps 762 mmHg 26%
    16:00 +26°C° 0 mm 2 mps 762 mmHg 27%
    17:00 +25°C° 0 mm 2 mps 761 mmHg 32%
    18:00 +24°C° 0 mm 2 mps 761 mmHg 38%
    19:00 +23°C° 0 mm 2 mps 761 mmHg 44%
    20:00 +20°C° 0 mm 2 mps 762 mmHg 51%
    21:00 +18°C° 0 mm 2 mps 762 mmHg 59%
    22:00 +16°C° 0 mm 2 mps 762 mmHg 66%
    23:00 +15°C° 0 mm 2 mps 762 mmHg 69%

    26 May, Saturday

    Time Temperature Precipitation Wind Pressure Humidity
    00:00 +14°C° 0 mm 2 mps 762 mmHg 73%
    01:00 +13°C° 0 mm 1 mps 763 mmHg 77%
    02:00 +13°C° 0 mm 1 mps 763 mmHg 77%
    03:00 +13°C° 0 mm 1 mps 763 mmHg 78%
    04:00 +12°C° 0 mm 1 mps 763 mmHg 79%
    05:00 +15°C° 0 mm 1 mps 763 mmHg 70%
    06:00 +18°C° 0 mm 1 mps 763 mmHg 61%
    07:00 +21°C° 0 mm 1 mps 763 mmHg 52%
    08:00 +23°C° 0 mm 1 mps 763 mmHg 46%
    09:00 +24°C° 0 mm 1 mps 763 mmHg 40%
    10:00 +26°C° 0 mm 1 mps 763 mmHg 35%
    11:00 +27°C° 0 mm 1 mps 763 mmHg 34%
    12:00 +28°C° 0 mm 2 mps 762 mmHg 33%
    13:00 +29°C° 0 mm 2 mps 762 mmHg 32%
    14:00 +28°C° 0 mm 2 mps 762 mmHg 35%
    15:00 +28°C° 0 mm 2 mps 762 mmHg 37%
    16:00 +27°C° 0 mm 2 mps 762 mmHg 40%
    17:00 +26°C° 0 mm 2 mps 762 mmHg 45%
    18:00 +25°C° 0 mm 2 mps 762 mmHg 50%
    19:00 +25°C° 0 mm 1 mps 762 mmHg 55%
    20:00 +22°C° 0.1 mm 1 mps 762 mmHg 64%
    21:00 +20°C° 0.1 mm 1 mps 762 mmHg 73%
    22:00 +18°C° 0.1 mm 1 mps 762 mmHg 82%
    23:00 +18°C° 0.1 mm 1 mps 762 mmHg 86%

    27 May, Sunday

    Time Temperature Precipitation Wind Pressure Humidity
    00:00 +16°C° 0.1 mm 1 mps 762 mmHg 89%
    01:00 +15°C° 0.1 mm 1 mps 762 mmHg 93%
    02:00 +15°C° 0 mm 1 mps 762 mmHg 93%
    03:00 +15°C° 0 mm 1 mps 762 mmHg 93%
    04:00 +14°C° 0 mm 0 mps 762 mmHg 94%
    05:00 +18°C° 0 mm 1 mps 762 mmHg 86%
    06:00 +20°C° 0 mm 1 mps 762 mmHg 78%
    07:00 +22°C° 0 mm 1 mps 763 mmHg 70%
    08:00 +23°C° 0 mm 1 mps 763 mmHg 61%
    09:00 +25°C° 0 mm 2 mps 763 mmHg 52%
    10:00 +27°C° 0 mm 3 mps 763 mmHg 44%
    11:00 +27°C° 0 mm 3 mps 762 mmHg 40%
    12:00 +28°C° 0 mm 3 mps 762 mmHg 37%
    13:00 +29°C° 0 mm 3 mps 762 mmHg 34%
    14:00 +29°C° 0 mm 3 mps 762 mmHg 34%
    15:00 +28°C° 0 mm 3 mps 761 mmHg 34%
    16:00 +28°C° 0 mm 3 mps 761 mmHg 34%
    17:00 +27°C° 0 mm 3 mps 761 mmHg 37%
    18:00 +26°C° 0 mm 3 mps 761 mmHg 40%
    19:00 +25°C° 0 mm 2 mps 761 mmHg 44%
    20:00 +21°C° 0 mm 2 mps 762 mmHg 51%
    21:00 +19°C° 0 mm 2 mps 762 mmHg 59%
    22:00 +17°C° 0 mm 2 mps 762 mmHg 67%
    23:00 +16°C° 0 mm 2 mps 762 mmHg 73%

    28 May, Monday

    Time Temperature Precipitation Wind Pressure Humidity
    00:00 +15°C° 0 mm 1 mps 763 mmHg 79%
    01:00 +14°C° 0 mm 1 mps 763 mmHg 84%
    02:00 +14°C° 0 mm 1 mps 763 mmHg 86%
    03:00 +14°C° 0 mm 1 mps 763 mmHg 88%
    04:00 +13°C° 0 mm 1 mps 763 mmHg 89%
    05:00 +15°C° 0 mm 2 mps 763 mmHg 79%
    06:00 +17°C° 0 mm 2 mps 763 mmHg 69%
    07:00 +19°C° 0 mm 3 mps 763 mmHg 60%
    08:00 +21°C° 0 mm 3 mps 763 mmHg 52%
    09:00 +24°C° 0 mm 3 mps 763 mmHg 45%
    10:00 +26°C° 0 mm 4 mps 763 mmHg 38%
    11:00 +26°C° 0 mm 4 mps 763 mmHg 36%
    12:00 +27°C° 0 mm 4 mps 763 mmHg 33%
    13:00 +28°C° 0 mm 4 mps 762 mmHg 31%
    14:00 +28°C° 0 mm 4 mps 762 mmHg 31%
    15:00 +28°C° 0 mm 4 mps 762 mmHg 31%
    16:00 +28°C° 0 mm 4 mps 761 mmHg 31%
    17:00 +26°C° 0 mm 4 mps 761 mmHg 35%
    18:00 +25°C° 0 mm 4 mps 761 mmHg 39%
    19:00 +24°C° 0 mm 3 mps 761 mmHg 43%
    20:00 +20°C° 0 mm 3 mps 761 mmHg 50%
    21:00 +18°C° 0 mm 2 mps 762 mmHg 57%
    22:00 +16°C° 0 mm 2 mps 762 mmHg 65%
    23:00 +15°C° 0 mm 2 mps 762 mmHg 67%
    Show more